Overview Statistics Trail Chart Weather Telemetry Raw packets
 

This is the latest recevied weather packets stored in our database for station/object 4S6DRJ-13. If no packets are shown the sender has not sent any weather packets the latest 10 day(s).

<< 361 362 363 364 365 366 367 >>
Time Temp. Humidity Pressure Rain* Wind** Luminosity Snow
1787923254 28.33° C 83% 1008.9 hPa 0 mm 1.34 m/s, 203° 0 W/m² -
1787923193 28.33° C 83% 1009 hPa 0 mm 0.89 m/s, 261° 0 W/m² -
1787923132 28.33° C 83% 1008.7 hPa 0 mm 1.34 m/s, 228° 0 W/m² -
1787923071 28.33° C 83% 1008.8 hPa 0 mm 0.89 m/s, 241° 0 W/m² -
1787923010 28.33° C 83% 1009 hPa 0 mm 1.34 m/s, 241° 0 W/m² -
1787922949 28.33° C 83% 1008.8 hPa 0 mm 0.45 m/s, 232° 0 W/m² -
1787922888 28.33° C 83% 1008.8 hPa 0 mm 0.89 m/s, 288° 0 W/m² -
1787922827 28.33° C 83% 1008.7 hPa 0 mm 0.89 m/s, 351° 0 W/m² -
1787922766 28.33° C 83% 1008.7 hPa 0 mm 0.89 m/s, 233° 0 W/m² -
1787922705 28.33° C 83% 1008.8 hPa 0 mm 1.34 m/s, 278° 0 W/m² -
1787922649 28.33° C 83% 1008.7 hPa 0 mm 1.79 m/s, 238° 0 W/m² -
1787922583 28.33° C 83% 1008.5 hPa 0 mm 0.45 m/s, 232° 0 W/m² -
1787922522 28.33° C 83% 1008.8 hPa 0 mm 1.34 m/s, 231° 0 W/m² -
1787922461 28.33° C 83% 1008.6 hPa 0 mm 0.89 m/s, 226° 0 W/m² -
1787922400 28.33° C 83% 1008.5 hPa 0 mm 0.45 m/s, 214° 0 W/m² -
1787922339 28.33° C 83% 1008.7 hPa 0 mm 1.79 m/s, 130° 0 W/m² -
1787922278 28.33° C 83% 1008.6 hPa 0 mm 1.79 m/s, 214° 0 W/m² -
1787922217 28.33° C 83% 1008.5 hPa 0 mm 1.79 m/s, 222° 0 W/m² -
1787922156 28.33° C 83% 1008.6 hPa 0 mm 1.34 m/s, 209° 0 W/m² -
1787922095 28.33° C 83% 1008.6 hPa 0 mm 0.45 m/s, 210° 0 W/m² -
1787922034 28.33° C 83% 1008.7 hPa 0 mm 0.45 m/s, 264° 0 W/m² -
1787921973 28.33° C 83% 1008.5 hPa 0 mm 0 m/s 0 W/m² -
1787921912 28.33° C 83% 1008.6 hPa 0 mm 0.89 m/s, 307° 1 W/m² -
1787921851 28.33° C 82% 1008.6 hPa 0 mm 2.24 m/s, 210° 1 W/m² -
1787921790 28.33° C 82% 1008.7 hPa 0 mm 0.45 m/s, 275° 1 W/m² -

* Rain latest hour (hover to see other rain measurements)
** Current wind speed in m/s (hover to see current wind gust speed)